TimePST,TemperatureF,Dew PointF,Humidity,Sea Level PressureIn,VisibilityMPH,Wind Direction,Wind SpeedMPH,Gust SpeedMPH,PrecipitationIn,Events,Conditions,WindDirDegrees,DateUTC
12:15 AM,33.8,28.4,81,30.26,10.0,Calm,Calm,-,N/A,,Clear,0,2012-12-05 08:15:00
12:35 AM,33.8,28.4,81,30.26,10.0,Calm,Calm,-,N/A,,Clear,0,2012-12-05 08:35:00
12:55 AM,33.8,28.4,81,30.25,10.0,Calm,Calm,-,N/A,,Clear,0,2012-12-05 08:55:00
1:15 AM,35.6,28.4,75,30.24,10.0,Calm,Calm,-,N/A,,Clear,0,2012-12-05 09:15:00
1:35 AM,33.8,28.4,81,30.24,10.0,Calm,Calm,-,N/A,,Clear,0,2012-12-05 09:35:00
1:55 AM,35.6,28.4,75,30.24,10.0,Calm,Calm,-,N/A,,Clear,0,2012-12-05 09:55:00
2:15 AM,39.2,28.4,65,30.24,10.0,West,3.5,-,N/A,,Clear,260,2012-12-05 10:15:00
2:35 AM,46.4,26.6,46,30.24,10.0,West,4.6,-,N/A,,Clear,270,2012-12-05 10:35:00
2:55 AM,44.6,28.4,53,30.24,10.0,West,8.1,-,N/A,,Clear,260,2012-12-05 10:55:00
3:15 AM,42.8,28.4,57,30.23,10.0,West,5.8,-,N/A,,Clear,260,2012-12-05 11:15:00
3:35 AM,44.6,28.4,53,30.22,10.0,West,10.4,-,N/A,,Clear,270,2012-12-05 11:35:00
3:55 AM,41.0,28.4,61,30.22,10.0,West,6.9,-,N/A,,Clear,270,2012-12-05 11:55:00
4:15 AM,44.6,28.4,53,30.21,10.0,West,8.1,-,N/A,,Clear,260,2012-12-05 12:15:00
4:35 AM,44.6,28.4,53,30.21,10.0,WNW,6.9,-,N/A,,Clear,290,2012-12-05 12:35:00
4:55 AM,44.6,28.4,53,30.22,10.0,NW,11.5,-,N/A,,Clear,320,2012-12-05 12:55:00
6:55 AM,46.4,28.4,50,30.22,10.0,WNW,8.1,-,N/A,,Clear,300,2012-12-05 14:55:00
7:15 AM,50.0,21.2,32,30.22,10.0,NW,11.5,-,N/A,,Clear,310,2012-12-05 15:15:00
7:35 AM,53.6,19.4,26,30.22,10.0,NW,12.7,-,N/A,,Clear,310,2012-12-05 15:35:00
7:55 AM,53.6,23.0,30,30.22,10.0,NW,12.7,-,N/A,,Clear,320,2012-12-05 15:55:00
8:15 AM,53.6,24.8,33,30.22,10.0,NW,12.7,-,N/A,,Clear,310,2012-12-05 16:15:00
8:35 AM,53.6,23.0,30,30.23,10.0,NW,12.7,-,N/A,,Clear,310,2012-12-05 16:35:00
8:55 AM,55.4,23.0,29,30.23,10.0,WNW,13.8,-,N/A,,Clear,300,2012-12-05 16:55:00
9:15 AM,57.2,24.8,29,30.23,5.0,NW,11.5,-,N/A,,Haze,310,2012-12-05 17:15:00
9:35 AM,57.2,24.8,29,30.23,10.0,NW,12.7,-,N/A,,Clear,310,2012-12-05 17:35:00
9:55 AM,59.0,24.8,27,30.22,10.0,NW,15.0,-,N/A,,Clear,310,2012-12-05 17:55:00
10:15 AM,59.0,26.6,29,30.22,10.0,WNW,17.3,-,N/A,,Clear,300,2012-12-05 18:15:00
10:35 AM,59.0,26.6,29,30.22,10.0,NW,17.3,21.9,N/A,,Clear,310,2012-12-05 18:35:00
10:55 AM,59.0,26.6,29,30.21,10.0,NW,17.3,-,N/A,,Clear,310,2012-12-05 18:55:00
11:15 AM,59.0,26.6,29,30.21,10.0,NW,16.1,21.9,N/A,,Clear,310,2012-12-05 19:15:00
11:35 AM,60.8,26.6,27,30.20,10.0,NW,16.1,19.6,N/A,,Clear,320,2012-12-05 19:35:00
11:55 AM,60.8,26.6,27,30.19,10.0,NW,16.1,21.9,N/A,,Clear,310,2012-12-05 19:55:00
12:15 PM,62.6,28.4,27,30.19,10.0,NW,17.3,21.9,N/A,,Clear,310,2012-12-05 20:15:00
12:35 PM,62.6,30.2,30,30.17,10.0,NW,17.3,20.7,N/A,,Clear,310,2012-12-05 20:35:00
12:55 PM,60.8,30.2,31,30.17,10.0,NW,17.3,-,N/A,,Clear,310,2012-12-05 20:55:00
1:15 PM,60.8,32.0,34,30.16,10.0,NW,16.1,20.7,N/A,,Clear,320,2012-12-05 21:15:00
1:35 PM,59.0,32.0,36,30.16,10.0,NW,15.0,19.6,N/A,,Clear,320,2012-12-05 21:35:00
1:55 PM,59.0,32.0,36,30.14,10.0,NW,13.8,18.4,N/A,,Clear,320,2012-12-05 21:55:00
2:15 PM,59.0,32.0,36,30.13,10.0,NW,13.8,20.7,N/A,,Clear,320,2012-12-05 22:15:00
2:35 PM,59.0,32.0,36,30.13,10.0,NW,16.1,-,N/A,,Clear,310,2012-12-05 22:35:00
2:55 PM,57.2,30.2,36,30.13,10.0,NW,17.3,20.7,N/A,,Clear,310,2012-12-05 22:55:00
3:15 PM,57.2,28.4,33,30.13,10.0,NW,16.1,-,N/A,,Clear,320,2012-12-05 23:15:00
3:35 PM,55.4,28.4,36,30.14,10.0,WNW,17.3,-,N/A,,Clear,300,2012-12-05 23:35:00
3:55 PM,53.6,28.4,38,30.14,10.0,WNW,11.5,-,N/A,,Clear,300,2012-12-05 23:55:00
4:15 PM,51.8,32.0,47,30.14,10.0,WNW,11.5,-,N/A,,Clear,300,2012-12-06 00:15:00
4:35 PM,50.0,32.0,50,30.13,10.0,NW,12.7,-,N/A,,Clear,310,2012-12-06 00:35:00
4:55 PM,50.0,32.0,50,30.13,10.0,NW,12.7,-,N/A,,Clear,310,2012-12-06 00:55:00
5:15 PM,48.2,33.8,58,30.13,10.0,NW,11.5,-,N/A,,Clear,310,2012-12-06 01:15:00
5:35 PM,48.2,35.6,62,30.13,10.0,NW,11.5,-,N/A,,Clear,310,2012-12-06 01:35:00
5:55 PM,46.4,35.6,66,30.14,10.0,NW,9.2,-,N/A,,Clear,320,2012-12-06 01:55:00
6:15 PM,46.4,35.6,66,30.14,10.0,NW,6.9,-,N/A,,Clear,320,2012-12-06 02:15:00
6:35 PM,46.4,33.8,62,30.13,10.0,NW,6.9,-,N/A,,Clear,320,2012-12-06 02:35:00
6:55 PM,46.4,33.8,62,30.13,10.0,NW,3.5,-,N/A,,Clear,320,2012-12-06 02:55:00
7:15 PM,46.4,32.0,57,30.13,10.0,WNW,5.8,-,N/A,,Clear,290,2012-12-06 03:15:00
7:55 PM,48.2,32.0,54,30.13,10.0,WNW,4.6,-,N/A,,Overcast,290,2012-12-06 03:55:00
8:15 PM,48.2,32.0,54,30.13,10.0,West,5.8,-,N/A,,Overcast,280,2012-12-06 04:15:00
8:35 PM,51.8,28.4,41,30.13,10.0,NW,8.1,-,N/A,,Overcast,310,2012-12-06 04:35:00
8:55 PM,51.8,30.2,44,30.13,10.0,NW,10.4,-,N/A,,Overcast,310,2012-12-06 04:55:00
9:15 PM,51.8,32.0,47,30.13,10.0,NW,11.5,-,N/A,,Overcast,310,2012-12-06 05:15:00
9:35 PM,51.8,32.0,47,30.13,10.0,WNW,10.4,-,N/A,,Overcast,300,2012-12-06 05:35:00
9:55 PM,50.0,32.0,50,30.13,10.0,NW,12.7,-,N/A,,Overcast,310,2012-12-06 05:55:00
10:15 PM,50.0,32.0,50,30.13,10.0,NW,9.2,-,N/A,,Overcast,310,2012-12-06 06:15:00
10:35 PM,50.0,32.0,50,30.13,10.0,NW,8.1,-,N/A,,Overcast,320,2012-12-06 06:35:00
10:55 PM,48.2,32.0,54,30.13,10.0,NW,9.2,-,N/A,,Overcast,320,2012-12-06 06:55:00
11:15 PM,50.0,33.8,54,30.12,10.0,NW,8.1,-,N/A,,Overcast,320,2012-12-06 07:15:00
11:35 PM,50.0,35.6,58,30.12,10.0,NNW,9.2,-,N/A,,Overcast,330,2012-12-06 07:35:00
11:55 PM,50.0,35.6,58,30.12,10.0,NW,8.1,-,N/A,,Overcast,310,2012-12-06 07:55:00